Location: Novo Ouro Preto
(19.8840°S, 43.9844°W)
Time: 09:50:25
(UTC+00:00)

Cosmos 1634 Rocket - Pass Details

Date: 18 September 2020
Orbit: 961 x 991 km, 82.9° (Epoch: 21 October)

Event Time Altitude Azimuth Distance (km) Brightness Sun altitude
Rises 22:37:16 0° 179° (S) 3,684 7.1 -25.7°
Reaches altitude 10° 22:39:51 10° 175° (S) 2,727 6.4 -26.3°
Enters shadow 22:44:27 47° 148° (SSE) 1,262 4.3 -27.3°
